Regional Weather Roundup
Issued by NWS

Home | Current Version | Previous Version | Graphics & Text | Print | Product List | Glossary On
Versions: 1 2 3 4 5 6 7 8 9 10 11 12 13 14 15 16 17 18 19 20 21 22 23 24 25 26 27 28 29 30 31 32 33 34 35 36 37 38 39 40 41 42 43 44 45 46 47 48 49 50
000
ASUS44 KMEG 271910
RWRTN
TENNESSEE HOURLY STATE WEATHER ROUNDUP
NATIONAL WEATHER SERVICE MEMPHIS TN
200 PM CDT WED MAY 27 2015

TNZ002-004-019-021-049-052-054-088>092-272000-
WEST TENNESSEE

CITY           SKY/WX    TMP DP  RH WIND       PRES   REMARKS
MEMPHIS INTL   CLOUDY    76  65  68 VRB6      30.15F
NWS MEMPHIS      N/A     75 N/A N/A MISG        N/A
JACKSON        CLOUDY    77  66  68 W7        30.17S
DYERSBURG      CLOUDY    72  55  56 CALM      30.16R
PARIS          CLOUDY    63  63 100 SE7       30.18F
LEXINGTON      MOSUNNY   77  66  69 W5        30.17S
$$

TNZ008-025-027-028-033-062-065-066-272000-
NORTH MIDDLE TENNESSEE

CITY           SKY/WX    TMP DP  RH WIND       PRES   REMARKS
NASHVILLE      RAIN      69  64  84 SW7       30.20R FOG
CLARKSVILLE    RAIN      69  64  84 W18G26    30.18S
SMYRNA         TSTM      70  65  84 NW21      30.19R
COOKEVILLE     SUNNY     82  68  61 CALM      30.19S
CROSSVILLE     PTSUNNY   77  58  51 S6        30.23F
$$

TNZ061-075-076-078-094-096-097-272000-
SOUTH MIDDLE TENNESSEE

CITY           SKY/WX    TMP DP  RH WIND       PRES   REMARKS
FAYETTEVILLE     N/A    N/A N/A N/A MISG      30.20S
TULLAHOMA      PTSUNNY   81  64  57 CALM      30.21R
WINCHESTER     MOSUNNY   82  66  57 W3        30.19S
MCMINNVILLE    MOSUNNY   84  66  54 VRB6      30.19S
COLUMBIA       MOSUNNY   79  68  69 SE9       30.16S
SHELBYVILLE    MOSUNNY   82  70  65 SW13      30.20R
$$

TNZ017-018-042-046-047-272000-
NORTHEAST TENNESSEE

CITY           SKY/WX    TMP DP  RH WIND       PRES   REMARKS
TRI CITIES     MOSUNNY   82  58  43 W10       30.22F
ELIZABETHTON   CLEAR     81  61  50 VRB6      30.21F
$$

TNZ012-013-036-069-073-074-272000-
CENTRAL EAST TENNESSEE

CITY           SKY/WX    TMP DP  RH WIND       PRES   REMARKS
KNOXVILLE      MOSUNNY   79  59  50 NW7       30.19F
OAK RIDGE      MOSUNNY   81  62  52 VRB5      30.21F
GATLINBURG       N/A     82  61  47 NE9       30.20F
MORRISTOWN     CLEAR     81  63  54 VRB5      30.23F
$$

TNZ083-085-099-272000-
SOUTHEAST TENNESSEE

CITY           SKY/WX    TMP DP  RH WIND       PRES   REMARKS
CHATTANOOGA    MOSUNNY   81  64  56 SE6       30.19F
$$

SKY/WX REPORTED AS FAIR MEANS FEW OR NO CLOUDS BELOW
12 THOUSAND FEET.




USA.gov is the U.S. government's official web portal to all federal, state and local government web resources and services.